Retour au catalogue

DELTA 1 DEB

ActifLEO
NORAD 10227·DEBRIS·🇺🇸 United States

Lancé Jul 14, 1977 depuis Cape Canaveral Space Force Station

Loading…

Prochains Passages (prochaines 24 heures)

TLE

FraisSource: Space-Track

Époque: Sep 14, 2026, 05:50 UTC

1 10227U 77065BE  26257.24315349  .00001097  00000-0  33099-3 0  9994
2 10227  28.9538 224.2604 0671618 263.9304  88.4379 13.53365399386750

Suivez DELTA 1 DEB en temps réel avec AllMySat

Download on the App Store